Norfolk, NE

3:49 AM CDT on August 24, 2016 (GMT -0500)
Stefan Memorial

Weather History for KOFK - October, 2013

Change the Weather History Date:

Thursday, October 24, 2013

  Actual Average Record
Temperature  
Mean Temperature 39 °F 48 °F  
Max Temperature 50 °F 60 °F 86 °F (1927)
Min Temperature 27 °F 36 °F 14 °F (1926)
Degree Days  
Heating Degree Days 26 17  
Month to date heating degree days 323 310  
Since 1 July heating degree days 368 452  
Cooling Degree Days 0 0  
Month to date cooling degree days 9 8  
Year to date cooling degree days 1005 914  
Moisture  
Dew Point 25 °F    
Average Humidity 62    
Maximum Humidity 92    
Minimum Humidity 31    
Precipitation  
Precipitation 0.00 in 0.06 in 0.45 in (1916)
Month to date precipitation 4.34 1.72  
Year to date precipitation 23.60 24.94  
Snow  
Snow 0.00 in 0.00 in - ()
Month to date snowfall 0.0 0.4  
Since 1 July snowfall 0.0 0.4  
Snow Depth 0.00 in    
Sea Level Pressure  
Sea Level Pressure 30.37 in    
Wind  
Wind Speed 5 mph (NW)    
Max Wind Speed 15 mph    
Max Gust Speed 20 mph    
Visibility 10 miles    
Events      
T = Trace of Precipitation, MM = Missing Value Source: NWS Daily Summary

Daily Weather History Graph

Daily Weather History Graph

Search for Another Location

Airport or City:

Trip Planner

Search our weather history database for the weather conditions in past years. The results will help you decide how hot, cold, wet, or windy it might be!

Date:

Astronomy

Oct. 24, 2013 Rise Set
Actual Time 7:53 AM CDT 6:34 PM CDT
Civil Twilight 7:24 AM CDT 7:02 PM CDT
Nautical Twilight 6:51 AM CDT 7:35 PM CDT
Astronomical Twilight 6:19 AM CDT 8:07 PM CDT
Moon 10:57 PM CDT 12:57 PM CDT
Length of Visible Light 11h 38m
Length of Day
10h 41m
Waning Gibbous, 71% of the Moon is Illuminated
Oct 24
Waning Gibbous
Oct 26
Last Quarter
Nov 3
New
Nov 9
First Quarter
Nov 17
Full

Hourly Weather History & Observations

Time (CDT) Temp. Windchill Dew Point Humidity Pressure Visibility Wind Dir Wind Speed Gust Speed Precip Events Conditions
12:12 AM 39.2 °F 31.2 °F 30.2 °F 70% 30.23 in 10.0 mi North 13.8 mph - N/A   Overcast
12:56 AM 37.9 °F 32.1 °F 30.0 °F 73% 30.27 in 10.0 mi NNW 8.1 mph - N/A   Overcast
1:56 AM 36.0 °F 28.5 °F 28.0 °F 73% 30.29 in 10.0 mi NNW 10.4 mph - N/A   Scattered Clouds
2:56 AM 33.1 °F 26.9 °F 27.0 °F 78% 30.32 in 10.0 mi NW 6.9 mph - N/A   Clear
3:56 AM 32.0 °F 25.6 °F 27.0 °F 82% 30.33 in 10.0 mi WNW 6.9 mph - N/A   Partly Cloudy
4:56 AM 30.0 °F 23.2 °F 26.1 °F 85% 30.34 in 10.0 mi West 6.9 mph - N/A   Clear
5:56 AM 28.9 °F 21.9 °F 25.0 °F 85% 30.36 in 10.0 mi West 6.9 mph - N/A   Clear
6:56 AM 27.0 °F 20.5 °F 24.1 °F 89% 30.37 in 10.0 mi West 5.8 mph - N/A   Clear
7:56 AM 27.0 °F 20.5 °F 24.1 °F 89% 30.39 in 10.0 mi West 5.8 mph - N/A   Clear
8:56 AM 30.0 °F 25.2 °F 25.0 °F 82% 30.41 in 10.0 mi WNW 4.6 mph - N/A   Clear
9:56 AM 35.1 °F 30.1 °F 28.0 °F 76% 30.43 in 10.0 mi NW 5.8 mph - N/A   Clear
10:56 AM 41.0 °F 35.2 °F 27.0 °F 57% 30.43 in 10.0 mi NW 9.2 mph - N/A   Clear
11:56 AM 43.0 °F 36.8 °F 24.1 °F 47% 30.43 in 10.0 mi WNW 11.5 mph - N/A   Partly Cloudy
12:56 PM 46.0 °F 41.0 °F 23.0 °F 40% 30.42 in 10.0 mi North 10.4 mph - N/A   Clear
1:56 PM 46.0 °F 41.4 °F 21.9 °F 39% 30.40 in 10.0 mi NW 9.2 mph - N/A   Clear
2:56 PM 48.0 °F - 23.0 °F 37% 30.38 in 10.0 mi NNW 6.9 mph - N/A   Clear
3:56 PM 48.9 °F - 21.0 °F 33% 30.37 in 10.0 mi North 4.6 mph - N/A   Clear
4:56 PM 48.0 °F - 19.9 °F 33% 30.37 in 10.0 mi Calm Calm - N/A   Clear
5:56 PM 46.9 °F - 21.0 °F 36% 30.37 in 10.0 mi Calm Calm - N/A   Clear
6:56 PM 39.9 °F 37.8 °F 23.0 °F 51% 30.38 in 10.0 mi SW 3.5 mph - N/A   Clear
7:56 PM 35.1 °F - 23.0 °F 61% 30.40 in 10.0 mi Calm Calm - N/A   Clear
8:56 PM 32.0 °F 28.7 °F 21.9 °F 66% 30.40 in 10.0 mi SE 3.5 mph - N/A   Clear
9:56 PM 30.0 °F 26.5 °F 21.9 °F 72% 30.40 in 10.0 mi WSW 3.5 mph - N/A   Clear
10:56 PM 30.9 °F - 23.0 °F 72% 30.40 in 10.0 mi Calm Calm - N/A   Clear
11:56 PM 30.0 °F - 24.1 °F 79% 30.40 in 10.0 mi Calm Calm - N/A   Clear